KD8OSM Weather Reports


Display with metric or nautical units.
time (UTC)temp
F
wind
direction
speed
MPH
gust
MPH
rain 1hr
in
rain 24hr
in
rain mn
in
humidity
%
barometer
mb
20260510225214 59 266 2.0 10.0 0.00 0.00 0.00 33 1019.0
20260510224225 59 280 4.0 9.0 0.00 0.00 0.00 34 1019.1
20260510223215 58 236 2.0 8.0 0.00 0.00 0.00 34 1018.9
20260510222211 59 305 3.0 9.0 0.00 0.00 0.00 33 1019.0
20260510221222 59 315 2.0 12.0 0.00 0.00 0.00 33 1018.9
20260510220227 60 280 3.0 9.0 0.00 0.00 0.00 32 1018.8
20260510215218 61 238 4.0 11.0 0.00 0.00 0.00 31 1018.8
20260510214213 61 307 2.0 4.0 0.00 0.00 0.00 32 1018.6
20260510213225 61 262 2.0 7.0 0.00 0.00 0.00 32 1018.5
20260510212215 61 319 3.0 12.0 0.00 0.00 0.00 34 1018.4
20260510211227 61 283 4.0 11.0 0.00 0.00 0.00 32 1018.3
20260510210218 59 301 4.0 9.0 0.00 0.00 0.00 34 1018.1
20260510205211 59 263 2.0 10.0 0.00 0.00 0.00 33 1018.2
20260510204244 60 300 1.0 7.0 0.00 0.00 0.00 34 1018.1
20260510203215 59 270 2.0 7.0 0.00 0.00 0.00 34 1018.4
20260510202234 60 270 2.0 7.0 0.00 0.00 0.00 33 1018.4
20260510201245 60 305 2.0 8.0 0.00 0.00 0.00 32 1018.5
20260510200210 60 233 4.0 11.0 0.00 0.01 0.00 31 1018.6
20260510195222 60 267 5.0 13.0 0.00 0.01 0.00 30 1018.7
20260510194219 59 18 1.0 12.0 0.00 0.01 0.00 32 1018.7
20260510193213 60 100 1.0 7.0 0.00 0.01 0.00 32 1018.7
20260510192247 59 276 1.0 8.0 0.00 0.01 0.00 30 1018.6
20260510191239 59 247 3.0 11.0 0.00 0.01 0.00 33 1018.7
20260510190209 58 257 2.0 8.0 0.00 0.12 0.00 31 1018.9
20260510185223 60 290 2.0 7.0 0.00 0.12 0.00 34 1018.7
20260510184216 59 253 0.0 6.0 0.00 0.12 0.00 34 1018.7
20260510183214 59 270 1.0 8.0 0.00 0.12 0.00 32 1018.6
20260510182228 59 318 1.0 5.0 0.00 0.12 0.00 31 1018.7
20260510181221 58 309 3.0 12.0 0.00 0.12 0.00 32 1018.7
20260510180228 59 267 4.0 8.0 0.00 0.12 0.00 30 1018.6
20260510175226 58 304 3.0 6.0 0.00 0.12 0.00 34 1018.4
20260510174219 58 307 1.0 7.0 0.00 0.12 0.00 31 1018.5
20260510173212 58 289 4.0 12.0 0.00 0.12 0.00 31 1018.5
20260510172210 57 259 2.0 8.0 0.00 0.12 0.00 35 1018.4
20260510171225 57 302 3.0 8.0 0.00 0.12 0.00 33 1018.6
20260510170211 57 322 1.0 7.0 0.00 0.12 0.00 33 1018.6
20260510165224 57 298 4.0 9.0 0.00 0.12 0.00 33 1018.6
20260510164222 57 269 2.0 8.0 0.00 0.12 0.00 35 1018.6
20260510163216 57 309 1.0 6.0 0.00 0.12 0.00 32 1018.5
20260510162228 57 94 1.0 7.0 0.00 0.12 0.00 30 1018.5
20260510161220 57 298 1.0 9.0 0.00 0.12 0.00 34 1018.5
20260510160211 57 293 3.0 8.0 0.00 0.12 0.00 33 1018.4
20260510155225 57 291 1.0 8.0 0.00 0.12 0.00 34 1018.4
20260510154218 57 295 2.0 7.0 0.00 0.12 0.00 35 1018.3
20260510153214 57 298 2.0 10.0 0.00 0.12 0.00 36 1018.2
20260510152248 57 343 3.0 8.0 0.00 0.12 0.00 34 1018.1
20260510151220 56 308 1.0 9.0 0.00 0.12 0.00 37 1017.9
20260510150247 56 319 1.0 7.0 0.00 0.12 0.00 38 1017.8
20260510145219 55 335 1.0 6.0 0.00 0.12 0.00 40 1017.7
20260510144237 54 319 2.0 7.0 0.00 0.12 0.00 41 1017.6
20260510143209 54 7 2.0 8.0 0.00 0.12 0.00 40 1017.6
20260510142243 54 277 1.0 3.0 0.00 0.12 0.00 42 1017.4
20260510141214 53 359 0.0 4.0 0.00 0.12 0.00 45 1017.4
20260510140224 52 349 2.0 5.0 0.00 0.12 0.00 45 1017.4
20260510135217 51 256 1.0 5.0 0.00 0.12 0.00 47 1017.4
20260510134210 51 300 2.0 6.0 0.00 0.12 0.00 46 1017.4
20260510133228 50 272 0.0 3.0 0.00 0.12 0.00 48 1017.4
20260510132221 50 303 1.0 6.0 0.00 0.12 0.00 50 1017.3
20260510131232 49 298 3.0 5.0 0.00 0.12 0.00 50 1017.2
20260510130219 49 18 1.0 4.0 0.00 0.12 0.00 53 1017.1
20260510124210 48 324 1.0 3.0 0.00 0.12 0.00 54 1016.9
20260510123223 47 340 0.0 4.0 0.00 0.12 0.00 56 1016.8
20260510122217 47 300 1.0 3.0 0.00 0.12 0.00 57 1016.7
20260510121234 46 264 1.0 3.0 0.00 0.12 0.00 58 1016.6
20260510120220 46 19 1.0 3.0 0.00 0.12 0.00 60 1016.5
20260510115214 45 298 0.0 2.0 0.00 0.12 0.00 61 1016.3
20260510114210 44 305 0.0 3.0 0.00 0.12 0.00 63 1016.2
20260510113243 42 333 0.0 1.0 0.00 0.12 0.00 68 1016.1
20260510112216 0 0.0 0.0 0.00 0.12 0.00 1016.0
20260510111210 0 0.0 0.0 0.00 0.12 0.00 1015.9
20260510110224 0 0.0 0.0 0.00 0.12 0.00 1015.7
20260510105243 0 0.0 0.0 0.00 0.12 0.00 1015.6
20260510104240 0 0.0 0.0 0.00 0.12 0.00 1015.5
20260510103257 0 0.0 0.0 0.00 0.12 0.00 1015.3
20260510102217 0 0.0 0.0 0.00 0.12 0.00 1015.3
20260510101309 0 0.0 0.0 0.00 0.12 0.00 1015.0
20260510100228 0 0.0 0.0 0.00 0.12 0.00 1015.0
20260510095241 0 0.0 0.0 0.00 0.12 0.00 1014.9
20260510094221 40 312 0.0 0.0 0.00 0.12 0.00 71 1014.8
20260510093221 42 312 0.0 0.0 0.00 0.12 0.00 70 1014.8
20260510092214 44 312 0.0 1.0 0.00 0.12 0.00 69 1014.6
20260510091247 44 313 0.0 1.0 0.00 0.12 0.00 67 1014.7
20260510090218 45 326 0.0 3.0 0.00 0.12 0.00 65 1014.5
20260510085209 45 337 1.0 6.0 0.00 0.12 0.00 65 1014.1
20260510084223 45 331 1.0 4.0 0.00 0.12 0.00 64 1013.9
20260510083217 45 267 1.0 3.0 0.00 0.12 0.00 63 1013.7
20260510082234 45 308 0.0 3.0 0.00 0.12 0.00 63 1013.5
20260510081226 46 312 0.0 3.0 0.00 0.12 0.00 62 1013.3
20260510080214 46 321 2.0 5.0 0.00 0.12 0.00 61 1013.0
20260510075248 46 357 1.0 4.0 0.00 0.12 0.00 62 1012.8
20260510074241 46 315 1.0 2.0 0.00 0.12 0.00 64 1012.5
20260510073217 47 324 0.0 2.0 0.00 0.12 0.00 64 1012.2
20260510072211 47 307 0.0 2.0 0.00 0.12 0.00 62 1012.0
20260510071223 47 260 0.0 5.0 0.00 0.12 0.00 62 1012.0
20260510070235 47 314 0.0 2.0 0.00 0.12 0.00 66 1011.8
20260510065225 47 330 0.0 2.0 0.00 0.12 0.00 67 1011.7
20260510064222 47 305 0.0 1.0 0.00 0.12 0.00 68 1011.7
20260510063215 46 255 0.0 0.0 0.00 0.12 0.00 71 1011.6
20260510062212 46 113 0.0 0.0 0.00 0.12 0.00 73 1011.6
20260510061225 46 113 0.0 0.0 0.00 0.12 0.00 73 1011.5
20260510060231 47 113 0.0 0.0 0.00 0.12 0.00 73 1011.4
20260510055244 48 113 0.0 0.0 0.00 0.12 0.00 72 1011.3
20260510054220 48 113 0.0 0.0 0.00 0.12 0.00 71 1011.1
20260510053213 48 113 0.0 1.0 0.00 0.12 0.00 70 1010.8
20260510052227 49 113 0.0 0.0 0.00 0.12 0.00 68 1010.7
20260510051221 50 113 0.0 0.0 0.00 0.12 0.00 65 1010.4
20260510050232 51 113 0.0 1.0 0.00 0.12 0.00 64 1010.2
20260510045224 52 319 0.0 4.0 0.00 0.12 0.00 63 1010.1
20260510044218 51 307 0.0 2.0 0.00 0.12 0.00 63 1009.8
20260510043215 52 312 0.0 0.0 0.00 0.12 0.00 62 1009.7
20260510042208 53 312 0.0 0.0 0.00 0.12 0.00 60 1009.5
20260510041222 54 312 0.0 2.0 0.00 0.12 0.00 57 1009.4
20260510040229 55 305 0.0 3.0 0.00 0.12 0.12 56 1009.4
20260510035246 56 300 1.0 4.0 0.00 0.12 0.12 55 1009.4
20260510034218 56 302 1.0 3.0 0.00 0.12 0.12 54 1009.2
20260510033212 57 288 1.0 4.0 0.00 0.12 0.12 52 1008.9
20260510032225 57 319 2.0 7.0 0.00 0.12 0.12 51 1008.9
20260510031224 58 302 1.0 7.0 0.00 0.12 0.12 51 1008.7
20260510030211 58 294 1.0 9.0 0.00 0.12 0.12 50 1008.6
20260510025224 59 359 1.0 9.0 0.00 0.12 0.12 48 1008.5
20260510024238 59 264 4.0 10.0 0.00 0.12 0.12 47 1008.2
20260510023234 60 323 4.0 9.0 0.00 0.12 0.12 46 1008.1
20260510022227 60 295 2.0 13.0 0.00 0.12 0.12 46 1007.9
20260510021239 61 343 3.0 7.0 0.00 0.12 0.12 46 1007.6
20260510020227 62 16 3.0 14.0 0.00 0.12 0.12 46 1007.1
20260510015244 62 289 3.0 6.0 0.00 0.12 0.12 51 1006.7
20260510014215 62 330 1.0 3.0 0.00 0.12 0.12 52 1006.4
20260510013249 62 271 1.0 2.0 0.00 0.12 0.12 52 1006.2
20260510012221 61 297 0.0 3.0 0.00 0.12 0.12 53 1005.8
20260510011218 62 278 0.0 1.0 0.00 0.12 0.12 52 1005.4
20260510010225 62 278 0.0 1.0 0.00 0.12 0.12 50 1005.3
20260510005219 63 278 0.0 0.0 0.00 0.12 0.12 49 1005.0
20260510004223 64 277 0.0 3.0 0.00 0.12 0.12 47 1004.9
20260510003217 65 298 1.0 6.0 0.00 0.12 0.12 45 1004.7
20260510002210 65 238 1.0 6.0 0.00 0.12 0.12 44 1004.6
20260510001224 66 305 3.0 10.0 0.00 0.12 0.12 42 1004.5
20260510000215 66 300 3.0 8.0 0.00 0.12 0.12 42 1004.2
20260509235228 67 292 3.0 10.0 0.00 0.12 0.12 41 1004.3
20260509234223 68 267 4.0 12.0 0.00 0.12 0.12 39 1004.1
20260509233219 68 263 4.0 10.0 0.00 0.12 0.12 39 1004.2
20260509232234 69 280 4.0 10.0 0.00 0.12 0.12 39 1004.0
20260509231225 69 328 2.0 14.0 0.00 0.12 0.12 40 1004.1
20260509230212 69 290 7.0 12.0 0.00 0.12 0.12 38 1004.1